Simultaneous Nadir Overpasses (SNOs) Predictions

Prediction of SNOs between AURA and NPP Satellite Orbit:

Table of predicted SNOs for the next 14.0 days since TLE Epoch: 8/2/2013
Index Date (AURA) Time (AURA) Lat,Lon (AURA) SZA (AURA ) Date (NPP) Time (NPP) Lat,Lon (NPP) SZA (NPP ) Distance(km) Time Diff (sec)
1 08/04/2013 11:25:17 -79.23, 83.61 103.76 08/04/2013 11:24:42 -79.23, 83.72 103.76 2.35 35
2 08/04/2013 12:14:37 79.46,-107.24 75.91 08/04/2013 12:15:20 79.46,-107.22 75.88 0.42 43
3 08/07/2013 03:41:49 -79.26,-160.30 103.11 08/07/2013 03:41:40 -79.26,-160.27 103.11 0.67 9
4 08/07/2013 04:31:09 79.49, 8.86 76.57 08/07/2013 04:32:18 79.49, 8.79 76.54 1.36 69
5 08/09/2013 19:09:04 78.97, 146.14 78.04 08/09/2013 19:08:01 78.96, 146.00 78.11 3.17 63
6 08/09/2013 19:58:24 -79.27, -44.41 102.38 08/09/2013 19:58:38 -79.26, -44.54 102.36 2.87 14
7 08/12/2013 11:25:41 79.07, -97.46 78.66 08/12/2013 11:24:57 79.06, -97.54 78.71 1.75 44
8 08/12/2013 12:15:02 -79.33, 71.78 101.70 08/12/2013 12:15:35 -79.32, 71.69 101.70 1.89 33
9 08/15/2013 03:42:23 79.09, 18.51 79.42 08/15/2013 03:41:55 79.09, 18.41 79.46 2.22 28




NCC Satellite Simultaneous Nadir Overpasses (SNOs) Prediction Service
